Weather History for K79J - November, 2013

Change the Weather History Date:

Wednesday, November 6, 2013

  Actual Average Record
Temperature  
Mean Temperature 68 °F -  
Max Temperature 78 °F - - ()
Min Temperature 57 °F - - ()
Cooling Degree Days 2    
Growing Degree Days 18 (Base 50)    
Moisture  
Dew Point 59 °F    
Average Humidity 74    
Maximum Humidity 90    
Minimum Humidity 58    
Precipitation  
Precipitation 0.00 in - - ()
Sea Level Pressure  
Sea Level Pressure 30.15 in    
Wind  
Wind Speed 6 mph (SE)    
Max Wind Speed 10 mph    
Max Gust Speed 17 mph    
T = Trace of Precipitation, MM = Missing Value Source: NWS Daily Summary

Daily Weather History Graph

Daily Weather History Graph

Search for Another Location

Airport or City:

Trip Planner

Search our weather history database for the weather conditions in past years. The results will help you decide how hot, cold, wet, or windy it might be!

Date:

Astronomy

Nov. 06, 2013 Rise Set
Actual Time 6:05 AM CST 4:52 PM CST
Civil Twilight 5:40 AM CST 5:17 PM CST
Nautical Twilight 5:11 AM CST 5:46 PM CST
Astronomical Twilight 4:42 AM CST 6:15 PM CST
Moon 9:14 AM CST (11/6) 8:00 PM CST (11/6)
Length of Visible Light 11h 37m
Length of Day
10h 46m
Waxing Crescent, 14% of the Moon is Illuminated
Nov 6
Waxing Crescent
Nov 9
First Quarter
Nov 17
Full
Nov 25
Last Quarter
Dec 2
New

Hourly Weather History & Observations

Time (CST) Temp. Dew Point Humidity Pressure Visibility Wind Dir Wind Speed Gust Speed Precip Events Conditions
12:56 AM 60.1 °F 48.0 °F 64% 30.19 in - ESE 6.9 mph - N/A   Scattered Clouds
1:56 AM 57.9 °F 48.0 °F 70% 30.18 in - ESE 6.9 mph - N/A   Clear
2:56 AM 57.9 °F 48.9 °F 72% 30.17 in - ESE 5.8 mph - N/A   Mostly Cloudy
3:56 AM 57.0 °F 50.0 °F 77% 30.17 in - SE 5.8 mph - N/A   Clear
4:43 AM 57.2 °F 51.8 °F 82% 30.18 in - SE 5.8 mph - N/A   Mostly Cloudy
4:56 AM 59.0 °F 53.1 °F 81% 30.17 in - SE 8.1 mph - N/A   Overcast
5:56 AM 62.1 °F 55.9 °F 80% 30.18 in - SE 10.4 mph - N/A   Overcast
6:56 AM 63.0 °F 57.0 °F 81% 30.19 in - SE 8.1 mph - N/A   Overcast
7:33 AM 64.4 °F 57.2 °F 77% 30.20 in - SE 8.1 mph - N/A   Overcast
7:56 AM 64.0 °F 57.9 °F 80% 30.20 in - SE 6.9 mph 17.3 mph N/A   Overcast
8:51 AM 66.2 °F 59.0 °F 78% 30.21 in - SE 10.4 mph 17.3 mph N/A   Overcast
8:56 AM 66.0 °F 59.0 °F 78% 30.21 in - Variable 6.9 mph 17.3 mph N/A   Overcast
9:44 AM 69.8 °F 60.8 °F 73% 30.21 in - SSE 8.1 mph 16.1 mph N/A   Mostly Cloudy
9:56 AM 70.0 °F 59.0 °F 68% 30.20 in - ESE 8.1 mph - N/A   Scattered Clouds
10:14 AM 71.6 °F 60.8 °F 69% 30.21 in - SE 9.2 mph - N/A   Mostly Cloudy
10:46 AM 73.4 °F 60.8 °F 65% 30.19 in - South 6.9 mph - N/A   Mostly Cloudy
10:56 AM 73.0 °F 60.1 °F 64% 30.18 in - SE 8.1 mph - N/A   Scattered Clouds
11:56 AM 75.0 °F 61.0 °F 62% 30.15 in - Calm Calm - N/A   Mostly Cloudy
12:56 PM 77.0 °F 62.1 °F 60% 30.12 in - South 4.6 mph - N/A   Overcast
1:56 PM 78.1 °F 62.1 °F 58% 30.11 in - SSE 4.6 mph - N/A   Mostly Cloudy
2:56 PM 77.0 °F 62.1 °F 60% 30.10 in - Calm Calm - N/A   Overcast
3:56 PM 77.0 °F 64.0 °F 64% 30.10 in - Calm Calm - N/A   Overcast
4:56 PM 73.0 °F 64.9 °F 76% 30.10 in - Calm Calm - N/A   Mostly Cloudy
5:56 PM 72.0 °F 64.9 °F 78% 30.11 in - Calm Calm - N/A   Overcast
6:56 PM 71.1 °F 64.0 °F 78% 30.11 in - Calm Calm - N/A   Partly Cloudy
7:56 PM 68.0 °F 63.0 °F 84% 30.11 in - Calm Calm - N/A   Clear
8:56 PM 66.9 °F 63.0 °F 87% 30.11 in - Calm Calm - N/A   Mostly Cloudy
9:56 PM 64.9 °F 62.1 °F 90% 30.11 in - Calm Calm - N/A   Partly Cloudy
10:56 PM 64.9 °F 61.0 °F 87% 30.10 in - Calm Calm - N/A   Clear
11:56 PM 64.0 °F 60.1 °F 87% 30.08 in - Calm Calm - N/A   Clear